• In Österreich
  • Länderverzeichnis
  • Für 7 Tage
  • Wassertemperatur
  • Satellitenkarten
  • Wetterkarte
  • News
  • Widgets
  • user-avatar
    Anmelden

    Stündliche Wetter Chiredzi

    Heute, 18 Juni, Montag

    Zeit Temperatur Niederschläge Wind Luftdruck Luftfeuchtigkeit
    00:00 +16°C° 0 mm 0 m/S 732 mmHg 89%
    01:00 +15°C° 0 mm 0 m/S 731 mmHg 90%
    02:00 +15°C° 0 mm 0 m/S 731 mmHg 91%
    03:00 +15°C° 0 mm 0 m/S 731 mmHg 92%
    04:00 +15°C° 0 mm 0 m/S 731 mmHg 92%
    05:00 +14°C° 0 mm 0 m/S 731 mmHg 93%
    06:00 +15°C° 0 mm 0 m/S 731 mmHg 89%
    07:00 +16°C° 0 mm 0 m/S 731 mmHg 85%
    08:00 +19°C° 0 mm 1 m/S 731 mmHg 80%
    09:00 +22°C° 0 mm 1 m/S 731 mmHg 70%
    10:00 +25°C° 0 mm 1 m/S 732 mmHg 60%
    11:00 +27°C° 0 mm 1 m/S 732 mmHg 50%
    12:00 +28°C° 0 mm 1 m/S 731 mmHg 45%
    13:00 +30°C° 0 mm 1 m/S 730 mmHg 39%
    14:00 +31°C° 0 mm 1 m/S 729 mmHg 34%
    15:00 +29°C° 0 mm 1 m/S 729 mmHg 37%
    16:00 +28°C° 0 mm 1 m/S 729 mmHg 39%
    17:00 +27°C° 0 mm 1 m/S 728 mmHg 41%
    18:00 +25°C° 0 mm 1 m/S 728 mmHg 45%
    19:00 +22°C° 0 mm 0 m/S 729 mmHg 49%
    20:00 +20°C° 0 mm 0 m/S 729 mmHg 52%
    21:00 +20°C° 0 mm 0 m/S 729 mmHg 54%
    22:00 +19°C° 0 mm 0 m/S 729 mmHg 56%
    23:00 +21°C° 0 mm 1 m/S 729 mmHg 57%

    Morgen, 19 Juni, Dienstag

    Zeit Temperatur Niederschläge Wind Luftdruck Luftfeuchtigkeit
    00:00 +20°C° 0 mm 1 m/S 729 mmHg 59%
    01:00 +19°C° 0 mm 1 m/S 729 mmHg 60%
    02:00 +19°C° 0 mm 1 m/S 729 mmHg 62%
    03:00 +19°C° 0 mm 1 m/S 728 mmHg 63%
    04:00 +18°C° 0 mm 1 m/S 728 mmHg 64%
    05:00 +18°C° 0 mm 1 m/S 728 mmHg 65%
    06:00 +19°C° 0 mm 1 m/S 729 mmHg 61%
    07:00 +20°C° 0 mm 1 m/S 729 mmHg 57%
    08:00 +21°C° 0 mm 1 m/S 730 mmHg 53%
    09:00 +24°C° 0 mm 1 m/S 730 mmHg 45%
    10:00 +27°C° 0 mm 1 m/S 730 mmHg 38%
    11:00 +30°C° 0 mm 1 m/S 730 mmHg 30%
    12:00 +31°C° 0 mm 1 m/S 730 mmHg 27%
    13:00 +32°C° 0 mm 1 m/S 729 mmHg 24%
    14:00 +33°C° 0 mm 1 m/S 728 mmHg 21%
    15:00 +31°C° 0 mm 1 m/S 728 mmHg 23%
    16:00 +29°C° 0 mm 1 m/S 727 mmHg 25%
    17:00 +28°C° 0 mm 1 m/S 727 mmHg 28%
    18:00 +26°C° 0 mm 1 m/S 728 mmHg 30%
    19:00 +23°C° 0 mm 0 m/S 728 mmHg 31%
    20:00 +21°C° 0 mm 0 m/S 728 mmHg 33%
    21:00 +23°C° 0 mm 1 m/S 729 mmHg 34%
    22:00 +22°C° 0 mm 1 m/S 729 mmHg 35%
    23:00 +22°C° 0 mm 1 m/S 729 mmHg 37%

    übermorgen, 20 Juni, Mittwoch

    Zeit Temperatur Niederschläge Wind Luftdruck Luftfeuchtigkeit
    00:00 +21°C° 0 mm 1 m/S 729 mmHg 39%
    01:00 +20°C° 0 mm 1 m/S 729 mmHg 41%
    02:00 +19°C° 0 mm 1 m/S 728 mmHg 44%
    03:00 +19°C° 0 mm 1 m/S 728 mmHg 45%
    04:00 +18°C° 0 mm 1 m/S 729 mmHg 46%
    05:00 +18°C° 0 mm 1 m/S 729 mmHg 48%
    06:00 +17°C° 0 mm 0 m/S 730 mmHg 45%
    07:00 +18°C° 0 mm 0 m/S 730 mmHg 42%
    08:00 +20°C° 0 mm 0 m/S 731 mmHg 40%
    09:00 +24°C° 0 mm 1 m/S 732 mmHg 35%
    10:00 +27°C° 0 mm 1 m/S 732 mmHg 30%
    11:00 +30°C° 0 mm 1 m/S 732 mmHg 25%
    12:00 +31°C° 0 mm 2 m/S 732 mmHg 24%
    13:00 +31°C° 0 mm 2 m/S 731 mmHg 23%
    14:00 +33°C° 0 mm 3 m/S 730 mmHg 21%
    15:00 +31°C° 0 mm 3 m/S 730 mmHg 25%
    16:00 +29°C° 0 mm 2 m/S 730 mmHg 29%
    17:00 +28°C° 0 mm 2 m/S 731 mmHg 33%
    18:00 +26°C° 0 mm 2 m/S 731 mmHg 38%
    19:00 +25°C° 0 mm 2 m/S 732 mmHg 44%
    20:00 +24°C° 0 mm 3 m/S 732 mmHg 50%
    21:00 +22°C° 0 mm 3 m/S 732 mmHg 56%
    22:00 +21°C° 0 mm 2 m/S 733 mmHg 62%
    23:00 +20°C° 0 mm 2 m/S 733 mmHg 69%

    21 Juni, Donnerstag

    Zeit Temperatur Niederschläge Wind Luftdruck Luftfeuchtigkeit
    00:00 +20°C° 0 mm 2 m/S 733 mmHg 73%
    01:00 +19°C° 0 mm 2 m/S 733 mmHg 78%
    02:00 +19°C° 0 mm 2 m/S 732 mmHg 82%
    03:00 +18°C° 0 mm 2 m/S 733 mmHg 85%
    04:00 +18°C° 0 mm 2 m/S 733 mmHg 89%
    05:00 +17°C° 0 mm 2 m/S 733 mmHg 92%
    06:00 +18°C° 0 mm 2 m/S 734 mmHg 90%
    07:00 +19°C° 0 mm 2 m/S 734 mmHg 87%
    08:00 +19°C° 0 mm 2 m/S 735 mmHg 84%
    09:00 +21°C° 0 mm 2 m/S 735 mmHg 73%
    10:00 +24°C° 0 mm 2 m/S 735 mmHg 62%
    11:00 +26°C° 0 mm 2 m/S 735 mmHg 52%
    12:00 +27°C° 0 mm 2 m/S 734 mmHg 47%
    13:00 +28°C° 0 mm 2 m/S 733 mmHg 42%
    14:00 +29°C° 0 mm 2 m/S 733 mmHg 37%
    15:00 +28°C° 0 mm 2 m/S 732 mmHg 40%
    16:00 +27°C° 0 mm 2 m/S 732 mmHg 42%
    17:00 +27°C° 0 mm 2 m/S 732 mmHg 45%
    18:00 +25°C° 0 mm 2 m/S 732 mmHg 50%
    19:00 +24°C° 0 mm 2 m/S 733 mmHg 56%
    20:00 +21°C° 0 mm 2 m/S 733 mmHg 61%
    21:00 +20°C° 0 mm 2 m/S 733 mmHg 65%
    22:00 +21°C° 0 mm 1 m/S 733 mmHg 69%
    23:00 +20°C° 0 mm 1 m/S 733 mmHg 72%

    22 Juni, Freitag

    Zeit Temperatur Niederschläge Wind Luftdruck Luftfeuchtigkeit
    00:00 +19°C° 0 mm 1 m/S 733 mmHg 75%
    01:00 +19°C° 0 mm 1 m/S 733 mmHg 78%
    02:00 +18°C° 0 mm 1 m/S 732 mmHg 81%
    03:00 +16°C° 0 mm 0 m/S 732 mmHg 83%
    04:00 +16°C° 0 mm 0 m/S 733 mmHg 85%
    05:00 +15°C° 0 mm 0 m/S 733 mmHg 87%
    06:00 +16°C° 0 mm 0 m/S 733 mmHg 82%
    07:00 +17°C° 0 mm 0 m/S 734 mmHg 77%
    08:00 +19°C° 0 mm 0 m/S 734 mmHg 72%
    09:00 +23°C° 0 mm 1 m/S 734 mmHg 63%
    10:00 +25°C° 0 mm 1 m/S 734 mmHg 55%
    11:00 +27°C° 0 mm 1 m/S 734 mmHg 47%
    12:00 +28°C° 0 mm 2 m/S 733 mmHg 42%
    13:00 +29°C° 0 mm 2 m/S 732 mmHg 38%
    14:00 +29°C° 0 mm 2 m/S 732 mmHg 33%
    15:00 +29°C° 0 mm 2 m/S 732 mmHg 35%
    16:00 +28°C° 0 mm 2 m/S 732 mmHg 37%
    17:00 +27°C° 0 mm 2 m/S 732 mmHg 38%
    18:00 +25°C° 0 mm 2 m/S 732 mmHg 42%
    19:00 +24°C° 0 mm 2 m/S 733 mmHg 46%
    20:00 +21°C° 0 mm 2 m/S 733 mmHg 49%
    21:00 +21°C° 0 mm 2 m/S 733 mmHg 52%
    22:00 +20°C° 0 mm 2 m/S 733 mmHg 55%
    23:00 +19°C° 0 mm 2 m/S 733 mmHg 59%

    23 Juni, Samstag

    Zeit Temperatur Niederschläge Wind Luftdruck Luftfeuchtigkeit
    00:00 +19°C° 0 mm 2 m/S 733 mmHg 62%
    01:00 +18°C° 0 mm 2 m/S 733 mmHg 65%
    02:00 +18°C° 0 mm 2 m/S 732 mmHg 68%
    03:00 +17°C° 0 mm 2 m/S 733 mmHg 73%
    04:00 +17°C° 0 mm 2 m/S 733 mmHg 78%
    05:00 +16°C° 0 mm 2 m/S 733 mmHg 83%
    06:00 +17°C° 0 mm 2 m/S 733 mmHg 81%
    07:00 +18°C° 0 mm 2 m/S 733 mmHg 80%
    08:00 +20°C° 0 mm 1 m/S 734 mmHg 78%
    09:00 +21°C° 0 mm 2 m/S 734 mmHg 69%
    10:00 +24°C° 0 mm 2 m/S 733 mmHg 59%
    11:00 +26°C° 0 mm 3 m/S 733 mmHg 50%
    12:00 +27°C° 0 mm 3 m/S 732 mmHg 45%
    13:00 +28°C° 0 mm 3 m/S 731 mmHg 40%
    14:00 +29°C° 0 mm 2 m/S 731 mmHg 35%
    15:00 +28°C° 0 mm 2 m/S 730 mmHg 37%
    16:00 +27°C° 0 mm 2 m/S 730 mmHg 39%
    17:00 +26°C° 0 mm 2 m/S 730 mmHg 40%
    18:00 +24°C° 0 mm 1 m/S 730 mmHg 44%
    19:00 +23°C° 0 mm 1 m/S 730 mmHg 48%
    20:00 +21°C° 0 mm 1 m/S 730 mmHg 51%
    21:00 +21°C° 0 mm 1 m/S 730 mmHg 55%
    22:00 +20°C° 0 mm 1 m/S 730 mmHg 58%
    23:00 +19°C° 0 mm 1 m/S 730 mmHg 62%
    Mehr zeigen